Regional Weather Roundup
Issued by NWS

Home | Current Version | Previous Version | Graphics & Text | Print | Product List | Glossary On
Versions: 1 2 3 4 5 6 7 8 9 10 11 12 13 14 15 16 17 18 19 20 21 22 23 24 25 26 27 28 29 30 31 32 33 34 35 36 37 38 39 40 41 42 43 44 45 46 47 48 49 50
000
ASUS43 KTOP 242259
RWRKS

WEATHER ROUNDUP FOR KANSAS
NATIONAL WEATHER SERVICE GOODLAND KS
600 PM CDT SUN MAY 24 2015

NOTE:  "FAIR" INDICATES FEW OR NO CLOUDS BELOW 12,000 FEET WITH NO
SIGNIFICANT WEATHER AND/OR OBSTRUCTIONS TO VISIBILITY.

KSZ001>006-013>018-027>032-041>047-250000-
NORTHWEST KANSAS

CITY           SKY/WX    TMP DP  RH WIND       PRES   REMARKS
GOODLAND       MOSUNNY   69  54  58 SE16G25   29.75F
HAYS           CLOUDY    66  55  68 S10       29.80F
HILL CITY      CLOUDY    68  59  73 SE9       29.79F
RUSSELL        CLOUDY    67  61  81 S13       29.79F
$$

KSZ061>065-074>080-084>089-250000-
SOUTHWEST KANSAS

CITY           SKY/WX    TMP DP  RH WIND       PRES   REMARKS
DODGE CITY     CLOUDY    66  59  78 SE18      29.80F
ELKHART          N/A     74  53  48 S17         N/A
GARDEN CITY    PTSUNNY   66  58  75 SE17G25   29.78S
GREAT BEND     CLOUDY    64  59  82 S16       29.81S
LIBERAL        PTSUNNY   73  57  56 SE17      29.76F
$$

KSZ066>073-081>083-090>101-250000-
SOUTHEAST KANSAS

CITY           SKY/WX    TMP DP  RH WIND       PRES   REMARKS
CHANUTE        LGT RAIN  66  64  93 W3        29.85F
COFFEYVILLE    CLOUDY    67  64  90 CALM      29.84F
HUTCHINSON     CLOUDY    66  60  81 S9        29.83F
NEWTON         CLOUDY    64  57  77 S9        29.86F
PARSONS        CLOUDY    67  64  90 CALM      29.86S
WICHITA INTL   CLOUDY    65  60  84 S9        29.84S
WICHITA JABRA  CLOUDY    65  60  84 S9        29.84S
WINFIELD       LGT RAIN  64  63  96 SW6       29.87R
$$

KSZ007>012-019>026-033>040-048>060-102>105-250000-
NORTHEAST KANSAS

CITY           SKY/WX    TMP DP  RH WIND       PRES   REMARKS
CONCORDIA      CLOUDY    66  60  81 S10       29.83S
EMPORIA        CLOUDY    65  62  90 S7        29.86F
LAWRENCE       CLOUDY    68  61  78 S13       29.86S
MANHATTAN      CLOUDY    68  63  84 S8        29.84S
OLATHE IND     CLOUDY    68  62  81 SW10      29.87S
OLATHE EXE     CLOUDY    68  63  84 SW12G17   29.86S
SALINA         CLOUDY    70  61  73 S9        29.82F
TOPEKA BILLARD CLOUDY    68  61  78 SW10      29.85S
TOPEKA FORBES  CLOUDY    68  62  81 S12       29.85S
$$


USA.gov is the U.S. government's official web portal to all federal, state and local government web resources and services.